Flag for Pakistan Weather past 2 weeks in Karachi, Sindh, Pakistan

Now
57 °F

Clear.


Feels Like: 57 °F
Forecast: 58 / 76 °F
Wind: 3 mph from East

Location: Karachi Airport

Current Time: Dec 22, 2014 at 2:44:57 AM

Latest Report: Dec 22, 2014 at 1:55 AM


Visibility: 2 mi

Pressure: 29.92 "Hg

Humidity: 82%

Dew point: 52 °F

Location of KarachiLocation

Historic Weather in Karachi — Graph

°F

Karachi temperature yesterday

Maximum temperature yesterday: 75 °F (at 1:25 PM)
Minimum temperature yesterday: 50 °F (at 4:55 AM)
Average temperature yesterday: 63 °F

Past Weeks' High & Low Weather Summary

 TemperatureHumidityPressure
High88 °F (Dec 7, 1:55 PM)83% (Dec 21, 10:55 PM)31.19 "Hg (Dec 21, 10:55 PM)
Low48 °F (Dec 15, 6:55 AM)7% (Dec 10, 2:25 PM)29.92 "Hg (Dec 8, 3:55 PM)
Average67 °F34%30.06 "Hg
* Reported Dec 7 1:25 AM — Dec 22 1:25 AM, Karachi, Weather by CustomWeather, © 2014

Note: Actual official high and low records may vary slightly from our data, if they occured in-between our weather recording intervals... More about our weather records

Advertising

Karachi weather history for previous 24 hours

 ConditionsComfort  
Time TempWeatherWind HumidityBarometerVisibility
1:25 AM
Dec 22
59 °FClear.3 mph82%29.92 "Hg2 mi
12:55 AM59 °FClear.3 mph82%29.92 "Hg2 mi
12:25 AM59 °FClear.5 mph82%29.95 "Hg2 mi
11:55 PM
Dec 21
61 °FClear.6 mph83%29.95 "Hg2 mi
11:25 PM61 °FClear.6 mph83%29.95 "Hg2 mi
10:55 PM61 °FClear.7 mph83%29.95 "Hg2 mi
10:25 PM63 °FClear.6 mph77%29.95 "Hg3 mi
9:55 PM63 °FClear.6 mph77%29.98 "Hg3 mi
9:25 PM64 °FClear.No wind78%29.95 "Hg4 mi
8:55 PM68 °FClear.No wind69%29.95 "Hg4 mi
8:25 PM68 °FClear.No wind69%29.95 "Hg4 mi
7:55 PM68 °FClear.3 mph69%29.95 "Hg4 mi
7:30 PM70 °FPassing clouds.No wind64%29.92 "Hg4 mi
6:55 PM70 °FPassing clouds.3 mph64%29.92 "Hg3 mi
6:25 PM72 °FPassing clouds.5 mph61%29.92 "Hg2 mi
5:55 PM72 °FPassing clouds.8 mph61%29.92 "Hg2 mi
5:25 PM73 °FScattered clouds.9 mph53%29.92 "Hg2 mi
4:55 PM73 °FScattered clouds.9 mph53%29.92 "Hg2 mi
3:55 PM75 °FScattered clouds.9 mph47%29.92 "Hg3 mi
3:25 PM75 °FScattered clouds.10 mph47%29.92 "Hg3 mi
2:25 PM75 °FScattered clouds.12 mph44%29.95 "Hg2 mi
1:55 PM75 °FScattered clouds.12 mph41%29.95 "Hg2 mi
1:25 PM75 °FScattered clouds.9 mph39%29.98 "Hg2 mi
12:55 PM73 °FScattered clouds.6 mph41%29.98 "Hg2 mi
12:25 PM72 °FScattered clouds.5 mph47%30.01 "Hg2 mi
11:55 AM72 °FScattered clouds.5 mph47%30.04 "Hg2 mi
11:25 AM70 °FHaze.5 mph50%30.04 "Hg1 mi
10:55 AM68 °FHaze.No wind46%30.04 "Hg1 mi
10:25 AM66 °FHaze.3 mph46%30.07 "Hg1 mi
9:55 AM61 °FHaze.No wind48%30.07 "Hg1 mi
9:25 AM57 °FHaze.No wind51%30.07 "Hg1 mi
8:55 AM55 °FHaze.5 mph55%30.04 "Hg1 mi
8:25 AM54 °FHaze.5 mph51%30.04 "Hg1 mi
7:55 AM52 °FHaze.5 mph54%30.04 "Hg2 mi
7:25 AM50 °FHaze.7 mph58%30.01 "Hg2 mi
6:55 AM50 °FHaze.6 mph62%30.01 "Hg2 mi
6:25 AM50 °FHaze.5 mph62%29.98 "Hg2 mi
4:55 AM50 °FHaze.6 mph67%29.98 "Hg2 mi
4:25 AM52 °FHaze.3 mph62%29.98 "Hg2 mi
3:55 AM54 °FHaze.No wind63%30.01 "Hg2 mi
3:25 AM54 °FHaze.3 mph63%30.01 "Hg2 mi
2:55 AM54 °FHaze.No wind63%30.01 "Hg2 mi
2:25 AM54 °FHaze.3 mph58%30.01 "Hg2 mi
Weather by CustomWeather, © 2014

See weather overviewHow to use our weather pages